GONETS M 21

导读 | 星芒AI

GONETS M 21 是一颗俄罗斯的低轨道通信卫星,属于 Gonets 系列,主要用于提供中低数据速率的卫星通信服务,支持包括短信、电子邮件和遥测数据传输等功能。该卫星由俄罗斯国家航天集团(Roscosmos)运营,设计用于增强偏远地区的通信覆盖。GONETS M 21 于 2022 年发射,运行在近极地轨道,具有较高的可靠性与较长的使用寿命,是俄罗斯构建自主卫星通信系统的重要组成部分。

基本信息
目录编号:
47228
目录名称:
GONETS M 21
国际标识:
2020-091B
轨道中心:
EARTH
卫星名称:
GONETS M 21
卫星全名:
--
卫星状态:
在轨 (已飞行1793 天)
发射日期:
2020-12-03 UTC
国别 :
俄罗斯(独联体) (CIS)
星等 :
--
轨道信息
数据来源 国际轨道数据 AOE轨道数据
星历时间 2025-10-31T05:13:09+0800
10小时前
查看轨道信息
2025-10-31T05:00:00+0800
10小时前
查看轨道信息
半长轴 7872.574km 7872.575km
偏心率 0.0014002 0.001401
轨道倾角 82.494° 82.493°
近地点辐角 336.972° 337.719°
升交点赤经 83.820° 83.826°
平近点角 23.073° 341.482°
近地点 1483.415km 1483.41km
远地点 1505.463km 1505.47km
周期 115.860分钟 115.860分钟
每日圈数 12.428757 12.428755
详细信息
使用方式:
暂无
2D轨道图
3D轨道图
轨道高度分析图
轨道倾角分析图
轨道综合分析图
查看轨道综合分析图